OSCAR 7 (AO-7) 1 07530U 74089B 26124.96193554 -.00000053 00000+0 -40127-4 0 9997 2 07530 101.9923 137.7551 0012040 212.1388 162.1938 12.53697380355101 PHASE 3B (AO-10) 1 14129U 83058B 26124.66605148 -.00000182 00000+0 00000+0 0 9992 2 14129 25.8942 226.8095 6026198 103.6723 326.5093 2.05871742294598 UOSAT 2 (UO-11) 1 14781U 84021B 26124.86012703 .00001371 00000+0 14549-3 0 9995 2 14781 97.8029 90.9310 0006969 338.8198 21.2730 14.90680704250674 LUSAT (LO-19) 1 20442U 90005G 26125.27403782 .00000134 00000+0 64500-4 0 9991 2 20442 98.8877 145.8918 0011081 337.4661 22.6034 14.34109763896242 EYESAT A (AO-27) 1 22825U 93061C 26124.78671485 .00000099 00000+0 54581-4 0 9993 2 22825 98.6896 192.2112 0007612 221.7333 138.3270 14.30930321700795 ITAMSAT (IO-26) 1 22826U 93061D 26125.12856320 .00000100 00000+0 54575-4 0 9992 2 22826 98.6844 192.4662 0008443 203.1638 156.9166 14.31356114701150 RADIO ROSTO (RS15) 1 23439U 94085A 26125.19046621 -.00000045 00000+0 -60763-4 0 9998 2 23439 64.8201 12.7548 0154739 11.7197 348.7264 11.27583763291050 JAS-2 (FO-29) 1 24278U 96046B 26125.05834083 -.00000024 00000+0 12357-4 0 9993 2 24278 98.5287 339.8264 0349359 208.2148 149.9671 13.53272313467337 TECHSAT 1B (GO-32) 1 25397U 98043D 26124.93505946 .00000048 00000+0 40816-4 0 9990 2 25397 99.0063 116.6059 0001412 28.1101 332.0153 14.24419771445172 ISS (ZARYA) 1 25544U 98067A 26125.16739473 .00007972 00000+0 15211-3 0 9993 2 25544 51.6303 153.0452 0007358 24.9406 335.1936 15.49102212565089 PCSAT (NO-44) 1 26931U 01043C 26125.06444931 .00000128 00000+0 78827-4 0 9992 2 26931 67.0522 355.8072 0006384 263.8917 96.1457 14.31939207284276 SAUDISAT 1C (SO-50) 1 27607U 02058C 26124.72745584 .00001276 00000+0 16755-3 0 9996 2 27607 64.5521 263.4371 0075630 270.3840 88.8600 14.82953014258011 CUTE-1 (CO-55) 1 27844U 03031E 26124.97474137 .00000276 00000+0 13844-3 0 9996 2 27844 98.6750 134.0757 0008649 316.6955 43.3544 14.24308653185521 CUBESAT XI-IV (CO-57) 1 27848U 03031J 26124.94158609 .00000231 00000+0 12062-3 0 9992 2 27848 98.6783 133.7906 0008893 336.8253 23.2524 14.23597352185226 MOZHAETS 4 (RS22) 1 27939U 03042A 26125.30519882 .00001143 00000+0 18448-3 0 9997 2 27939 98.3464 308.4551 0012264 49.1692 75.3385 14.73392326209235 CUBESAT XI-V 1 28895U 05043F 26124.98312789 .00001362 00000+0 22248-3 0 9998 2 28895 98.2937 279.7130 0013650 347.8824 12.2053 14.72517688 95390 CUTE-1.7+APD II (CO-65) 1 32785U 08021C 26125.21990501 .00006770 00000+0 43130-3 0 9992 2 32785 97.8266 105.7658 0009308 164.4242 195.7274 15.09052335978710 SEEDS II (CO-66) 1 32791U 08021J 26124.96090811 .00018695 00000+0 62022-3 0 9995 2 32791 97.7526 120.8490 0005122 99.7693 260.4126 15.31290789980673 YUBILEINY (RS30) 1 32953U 08025A 26125.28412750 .00000087 00000+0 55330-3 0 9995 2 32953 82.5079 22.1263 0020513 46.4740 313.8040 12.43178071814362 KKS-1 (KISEKI) 1 33499U 09002H 26125.27893722 .00001590 00000+0 20233-3 0 9992 2 33499 98.1194 47.0451 0009319 72.4059 287.8171 14.83013809929834 SWISSCUBE 1 35932U 09051B 26125.20125184 .00001198 00000+0 24652-3 0 9996 2 35932 98.4061 32.3385 0006779 358.5943 1.5237 14.62398709882872 BEESAT-1 1 35933U 09051C 26125.25697530 .00001000 00000+0 21079-3 0 9993 2 35933 98.3988 32.1198 0005601 15.1421 344.9946 14.61650434882911 ITUPSAT1 1 35935U 09051E 26125.21037346 .00000923 00000+0 20071-3 0 9998 2 35935 98.4075 31.3096 0007987 21.5382 338.6152 14.60375945882464 XIWANG-1 (HOPE-1) 1 36122U 09072B 26125.30438237 .00000375 00000+0 10972-2 0 9993 2 36122 100.4005 79.8281 0007349 336.9616 23.1166 13.16439405787364 O/OREOS (USA 219) 1 37224U 10062C 26125.26580941 .00002318 00000+0 22524-3 0 9999 2 37224 71.9699 177.5484 0013508 155.7644 204.4165 14.93572422110234 JUGNU 1 37839U 11058B 26125.31249230 .00000459 00000+0 99970-4 0 9990 2 37839 19.9598 208.9056 0018532 323.5686 93.4985 14.13764162752956 SRMSAT 1 37841U 11058D 26124.67550575 .00000422 00000+0 85094-4 0 9990 2 37841 19.9733 322.8391 0011783 85.3827 335.7134 14.11565762751667 STRAND-1 1 39090U 13009E 26125.02937971 .00000260 00000+0 10195-3 0 9994 2 39090 98.3915 306.3281 0008700 8.5285 351.6048 14.37137501690862 ZACUBE-1 (TSHEPISOSAT) 1 39417U 13066B 26124.80987168 .00005393 00000+0 42082-3 0 9990 2 39417 97.8130 86.9130 0043074 38.9211 321.5100 15.00846198674228 GOMX-1 1 39430U 13066Q 26125.28399336 .00001743 00000+0 26834-3 0 9994 2 39430 97.6507 328.4504 0127976 214.8014 144.4775 14.69294854663619 CUBEBUG-2 (LO-74) 1 39440U 13066AA 26125.25381225 .00004070 00000+0 38016-3 0 9991 2 39440 97.8882 74.0706 0058239 168.2671 191.9922 14.93452887670586 FUNCUBE-1 (AO-73) 1 39444U 13066AE 26124.89399046 .00008415 00000+0 52941-3 0 9994 2 39444 97.8257 95.4628 0036351 354.4180 5.6637 15.08917786673130 UWE-3 1 39446U 13066AG 26125.29877658 .00005839 00000+0 50333-3 0 9991 2 39446 97.8688 81.1057 0051343 102.1341 258.5639 14.96678759671165 UNISAT-6 1 40012U 14033C 26124.96470938 .00003614 00000+0 39278-3 0 9994 2 40012 97.7830 278.4582 0044637 209.3354 150.5356 14.87993284639737 DUCHIFAT-1 1 40021U 14033M 26125.12388316 .00078459 00000+0 10650-2 0 9992 2 40021 98.0512 178.5128 0005221 208.2870 151.8100 15.57357428649038 QB50P1 1 40025U 14033R 26124.97149490 .00009331 00000+0 46738-3 0 9996 2 40025 98.0981 133.1094 0009243 25.2546 334.9136 15.17592105646473 LILACSAT-2 1 40908U 15049K 26125.29588123 .00021919 00000+0 39108-3 0 9999 2 40908 97.4702 160.5420 0008322 60.6879 299.5203 15.50052509589106 FOX-1A (AO-85) 1 40967U 15058D 26125.08564548 .00004457 00000+0 40152-3 0 9995 2 40967 64.7768 52.9016 0128709 73.4860 288.0347 14.90714925107141 CAS-2T & KS-1Q 1 41847U 16066G 26125.22731090 .00000811 00000+0 12418-3 0 9991 2 41847 98.3827 201.4489 0340898 259.8819 96.3760 14.44581275498592 RADFXSAT (FOX-1B) 1 43017U 17073E 26125.06818965 .00009181 00000+0 40378-3 0 9995 2 43017 97.4754 353.1819 0154180 117.2098 244.4941 15.11934017458872 DIWATA-2B 1 43678U 18084H 26125.28651347 .00001656 00000+0 13744-3 0 9990 2 43678 98.1076 319.6622 0012527 319.1313 40.8969 15.00238048409783 ES'HAIL 2 1 43700U 18090A 26125.26917190 .00000152 00000+0 00000+0 0 9999 2 43700 0.0163 271.3049 0001620 159.7373 274.8183 1.00271417 27247 FOX-1CLIFF (AO-95) 1 43770U 18099N 26125.26473728 .00015972 00000+0 62624-3 0 9999 2 43770 97.4407 185.6945 0010201 134.2933 225.9144 15.25794870406679 ITASAT 1 43786U 18099AE 26125.06453525 .00006817 00000+0 33286-3 0 9997 2 43786 97.4059 177.4476 0013984 138.4490 221.7810 15.18503743406361 JY1SAT (JO-97) 1 43803U 18099AX 26125.14373617 .00017328 00000+0 55696-3 0 9997 2 43803 97.4154 187.8693 0006995 73.8113 286.3898 15.32307649407032 UWE-4 1 43880U 18111E 26125.26745105 .00045135 00000+0 10002-2 0 9993 2 43880 97.5868 51.7740 0010585 113.2861 246.9502 15.43572694404151 TIANYAN 01 1 44881U 19093C 26125.30010524 .00001417 00000+0 16619-3 0 9996 2 44881 97.7540 198.5763 0012385 223.8617 136.1617 14.86451965345046 RS-44 & BREEZE-KM R/B 1 44909U 19096E 26125.16172261 .00000020 00000+0 43794-4 0 9995 2 44909 82.5252 8.2984 0216470 244.8889 112.9613 12.79748080296844 SALSAT 1 46495U 20068K 26124.96568201 .00008137 00000+0 28981-3 0 9995 2 46495 97.8860 125.4226 0011723 94.6100 265.6479 15.29165250308752 XW-3 (CAS-9) 1 50466U 21131B 26125.29173468 .00000422 00000+0 14397-3 0 9999 2 50466 98.4958 217.9189 0003361 212.0104 148.0881 14.41316091228930 GREENCUBE (IO-117) 1 53109U 22080E 26124.91737869 -.00000003 00000+0 00000+0 0 9997 2 53109 70.1444 313.3008 0008845 299.9035 60.0745 6.42583305 89285 UMKA 1 (RS40S) 1 57172U 23091G 26125.25325397 .00007568 00000+0 35050-3 0 9990 2 57172 97.5075 184.1249 0011229 268.4356 91.5592 15.20338568157482 CUBESX-HSE 3 (RS42S) 1 57178U 23091N 26125.28834350 .00017471 00000+0 59977-3 0 9991 2 57178 97.5110 190.3652 0009764 238.4354 121.5934 15.30159702157869 MONITOR-3 (RS58S) 1 57180U 23091Q 26125.22141247 .00014125 00000+0 53457-3 0 9994 2 57180 97.5104 188.3757 0010464 246.8029 113.2107 15.26999506157734 MONITOR-4 (RS57S) 1 57182U 23091S 26125.26867588 .00014690 00000+0 55416-3 0 9997 2 57182 97.5098 188.3917 0010449 247.1630 112.8506 15.27097564157744 MONITOR-2 (RS39S) 1 57184U 23091U 26125.28791771 .00006199 00000+0 30332-3 0 9996 2 57184 97.5098 183.8542 0009667 259.8293 100.1850 15.18521898157446 SVYATOBOR 1 (RS60S) 1 57187U 23091X 26125.24657226 .00013088 00000+0 51255-3 0 9993 2 57187 97.5110 188.8451 0008283 237.0721 122.9721 15.25899773157767 VIZARD-METEO (RS38S) 1 57189U 23091Z 26125.26194556 .00023188 00000+0 69020-3 0 9990 2 57189 97.5108 193.9294 0006917 212.0656 148.0167 15.34696371158101 POLYTECH-UNIVERSE 3 (R*) 1 57191U 23091AB 26125.25483550 .00006393 00000+0 31054-3 0 9992 2 57191 97.5072 183.3264 0013957 279.2607 80.7048 15.18718129157430 UTMN 2 (RS27S) 1 57203U 23091AP 26125.26448785 .00017993 00000+0 60176-3 0 9993 2 57203 97.5105 191.9218 0007349 221.5179 138.5504 15.31021631157975 KUZGTU 1 (RS47S) 1 57217U 23091AV 26125.24294610 .00016882 00000+0 60244-3 0 9994 2 57217 97.5085 189.3137 0009823 242.9319 117.0919 15.28902333157818 SONATE-2 1 59112U 24043Q 26125.21003546 .00053157 00000+0 76870-3 0 9999 2 59112 97.5494 273.0896 0006279 4.2063 355.9243 15.55739570121206 MESAT1 1 60209U 24125G 26125.02522616 .00052436 00000+0 67247-3 0 9999 2 60209 97.2347 341.6575 0010512 26.3865 333.7925 15.58931239102833 OOV-CUBE (TUBSAT-30) 1 60240U 24128F 26125.26766583 .00002851 00000+0 22354-3 0 9992 2 60240 61.9966 15.2068 0049643 124.3493 236.2309 15.02561216 99669 COLIBRI-S (RS67S) 1 61746U 24199M 26125.23535855 .00030660 00000+0 62796-3 0 9998 2 61746 97.3049 358.7444 0010681 81.0469 279.1989 15.45977138130770 HORS 3 (RS81S) 1 61753U 24199U 26125.25328596 .00047081 00000+0 77522-3 0 9998 2 61753 97.3035 0.3228 0009025 85.7848 274.4436 15.52155298130896 HORS 4 (RS82S) 1 61754U 24199V 26125.26554041 .00060035 00000+0 85985-3 0 9992 2 61754 97.2985 1.2914 0008171 82.6782 277.5401 15.55956061130960 HORIZON (RS59S) 1 61757U 24199Y 26125.24487027 .00850933 34690-3 16503-2 0 9991 2 61757 97.2823 7.5034 0004544 142.8449 217.3145 16.00387695131369 ARCTICSAT 1 (RS74S) 1 61762U 24199AD 26125.25358405 .00284980 00000+0 13807-2 0 9996 2 61762 97.2926 6.2929 0004955 91.3686 268.8150 15.81731818131281 SIT-2086 1 61764U 24199AF 26125.24423153 .00032399 00000+0 56912-3 0 9990 2 61764 97.3005 0.9332 0008584 71.2781 288.9402 15.50413297127772 HYPERVIEW 1G (RS66S) 1 61772U 24199AP 26125.25125319 .00127120 00000+0 11907-2 0 9994 2 61772 97.2952 3.1143 0008545 83.8452 276.3782 15.66779766127930 ALTAIR (RS65S) 1 61779U 24199AW 26125.26234565 .00015443 00000+0 43763-3 0 9996 2 61779 97.3080 354.9103 0014830 99.8730 260.4189 15.36233553130523 ASRTU-1 (AO-123) 1 61781U 24199AY 26125.28036971 .00010383 00000+0 30631-3 0 9990 2 61781 97.3052 354.3454 0015880 101.9076 258.3949 15.35054895127347 TUSUR GO (RS78S) 1 61782U 24199AZ 26125.25961753 .03022481 23698-5 18364-2 0 9990 2 61782 97.2810 6.7967 0005751 207.3070 152.7916 16.18223754128185 SAMSAT-IONOSPHERE (RS7*) 1 61784U 24199BB 26125.28553617 .00056196 00000+0 86054-3 0 9996 2 61784 97.3008 0.2714 0011263 84.9795 275.2744 15.54104614130897 RTU MIREA 1 (RS51S) 1 61785U 24199BC 26125.26477187 .00070580 00000+0 97787-3 0 9990 2 61785 97.2998 0.8893 0011074 82.9640 277.2874 15.56781126127787 TEVEL2-4 1 63213U 25052D 26125.25499999 .00025838 00000+0 80745-3 0 9993 2 63213 97.3945 21.6165 0000578 205.6343 154.4871 15.33148470 63531 TEVEL2-5 1 63214U 25052E 26125.27098733 .00026041 00000+0 81758-3 0 9999 2 63214 97.3940 21.5919 0000592 209.1715 150.9494 15.32998515 63535 TEVEL2-6 1 63215U 25052F 26125.28227672 .00026809 00000+0 84255-3 0 9994 2 63215 97.3946 21.5881 0000706 219.0822 141.0369 15.32960172 63536 TEVEL2-1 1 63217U 25052H 26125.23189979 .00024535 00000+0 78329-3 0 9997 2 63217 97.3922 21.2109 0000481 292.1668 67.9523 15.32474903 63510 TEVEL2-3 1 63218U 25052J 26125.22795703 .00024502 00000+0 78112-3 0 9999 2 63218 97.3924 21.2238 0000522 294.6711 65.4476 15.32521521 63517 TEVEL2-2 1 63219U 25052K 26125.23240871 .00024674 00000+0 78755-3 0 9995 2 63219 97.3920 21.2129 0000541 296.9519 63.1667 15.32480831 63510 TEVEL2-9 1 63237U 25052AD 26125.22148681 .00022586 00000+0 76401-3 0 9996 2 63237 97.3982 20.6660 0004319 305.0707 55.0128 15.30619507 63456 TEVEL2-7 1 63238U 25052AE 26125.25464040 .00022473 00000+0 76635-3 0 9994 2 63238 97.3987 20.6324 0004451 305.0830 54.9993 15.30357608 63452 TEVEL2-8 1 63239U 25052AF 26125.26241125 .00022642 00000+0 77251-3 0 9996 2 63239 97.3987 20.6181 0004384 305.7464 54.3369 15.30339627 63451 HADES-ICM 1 63492U 25052BN 26125.23154483 .00799001 00000+0 30672-2 0 9999 2 63492 97.3785 28.6812 0006494 160.2566 199.8957 15.85446468 64000 INNOSAT 16 (RS92S7) 1 64878U 25155C 26125.22641439 .00008053 00000+0 32520-3 0 9998 2 64878 97.4545 92.5159 0009864 348.2912 11.8095 15.24993425 74128 GEOSCAN 6 (RS92S6) 1 64879U 25155D 26125.27035353 .00014572 00000+0 51392-3 0 9997 2 64879 97.4540 93.6926 0006849 345.5418 14.5625 15.29343684 74208 GEOSCAN 1 (RS92S1) 1 64880U 25155E 26125.22310582 .00015855 00000+0 54987-3 0 9992 2 64880 97.4537 93.7582 0006761 346.3273 13.7783 15.29871765 74208 239ALFEROV (RS61S) 1 64881U 25155F 26125.25019030 .00020561 00000+0 67075-3 0 9992 2 64881 97.4539 94.2115 0006175 347.2662 12.8422 15.31801634 74234 GEOSCAN 2 (RS92S2) 1 64890U 25155Q 26125.22452564 .00015409 00000+0 52996-3 0 9993 2 64890 97.4536 93.8948 0005632 332.5511 27.5431 15.30157598 74210 GEOSCAN 5 (RS92S5) 1 64891U 25155R 26125.24815649 .00020186 00000+0 65210-3 0 9994 2 64891 97.4532 94.3303 0005408 358.3091 1.8131 15.32125369 74246 GEOSCAN 4 (RS92S4) 1 64892U 25155S 26125.23628113 .00019971 00000+0 64262-3 0 9998 2 64892 97.4535 94.3555 0005465 359.5255 0.5981 15.32253696 74241 GEOSCAN 3 (RS92S3) 1 64893U 25155T 26125.15811328 .00025282 00000+0 76984-3 0 9998 2 64893 97.4524 94.5918 0005187 3.0331 357.0942 15.33967173 74253 INNOSAT 3 (RS92S0) 1 64894U 25155U 26125.23134855 .00049371 00000+0 11953-2 0 9990 2 64894 97.4483 95.8075 0004100 17.0813 343.0571 15.40941818 74349 KNACKSAT-2 1 67683U 98067XZ 26124.47714523 .00040009 00000+0 55994-3 0 9995 2 67683 51.6275 153.6873 0012746 35.8918 324.2927 15.56312178 13467